Location: Sangrey
(48.2845°N, 109.8206°W)
Time: 12:43:13
(UTC+00:00)

N. Korean satellite - Visible Passes

Search period start: 22 January 2022 00:00
Search period end: 01 February 2022 00:00
Orbit: 447 x 491 km, 97.3° (Epoch: 21 January)

Date Brightness Start Highest point End Pass type
(mag) Time Alt. Az. Time Alt. Az. Time Alt. Az.
22 Jan 7.2 12:27:04 10° NNE 12:30:23 55° ENE 12:30:23 55° ENE visible
22 Jan 8.4 14:01:32 10° NNW 14:03:22 13° WNW 14:04:26 12° W visible
23 Jan 9.6 00:38:25 10° SW 00:40:50 18° W 00:43:17 10° NW visible
23 Jan 8.7 11:58:16 10° NE 12:01:17 26° E 12:01:17 26° E visible
23 Jan 7.6 13:31:26 10° N 13:34:28 25° WNW 13:35:20 23° W visible
24 Jan 9.8 11:30:15 10° ENE 11:31:59 13° E 11:32:12 13° E visible
24 Jan 6.6 13:01:53 10° N 13:05:27 53° WNW 13:06:16 42° WSW visible
25 Jan 6.8 12:32:39 10° NNE 12:36:17 68° E 12:37:11 47° SSE visible
25 Jan 8.5 14:07:31 10° NW 14:08:56 12° WNW 14:10:19 10° W visible
26 Jan 9.7 00:44:18 10° SW 00:46:28 15° W 00:48:40 10° NW visible
26 Jan 8.5 12:03:44 10° NNE 12:07:00 30° E 12:08:06 25° SE visible
26 Jan 7.8 13:37:07 10° NNW 13:40:00 22° WNW 13:42:10 14° WSW visible
27 Jan 9.6 11:35:26 10° NE 11:37:35 15° E 11:39:02 12° ESE visible
27 Jan 6.8 13:07:27 10° N 13:10:58 45° WNW 13:13:05 21° SW visible
28 Jan 6.6 12:38:07 10° NNE 12:41:47 79° ESE 12:44:02 22° S visible
28 Jan 8.6 14:13:37 10° NW 14:14:20 10° WNW 14:15:02 10° WNW visible
29 Jan 9.9 00:50:08 10° WSW 00:51:59 14° W 00:53:51 10° WNW visible
29 Jan 8.2 12:09:06 10° NNE 12:12:29 35° E 12:15:01 15° SSE visible
29 Jan 7.9 13:42:42 10° NNW 13:45:24 20° WNW 13:48:05 10° WSW visible
30 Jan 9.5 11:40:35 10° NE 11:43:01 17° E 11:45:27 10° SE visible
30 Jan 7.0 13:12:54 10° N 13:16:20 39° WNW 13:19:43 10° SW visible
31 Jan 6.4 12:43:28 10° NNE 12:47:08 88° WNW 12:50:45 10° SSW visible
